| time (UTC) | temp F | wind direction | speed MPH | gust MPH | rain 1hr in | rain 24hr in | rain mn in | humidity % | barometer mb |
| 20260504120204 | 77 | 178 | 7.0 | 17.0 | 0.00 | 0.00 | 0.00 | 35 | 1018.1 |
| 20260504110704 | 75 | 191 | 9.0 | 17.0 | 0.00 | 0.00 | 0.00 | 36 | 1018.7 |
| 20260504110204 | 75 | 217 | 12.0 | 21.0 | 0.00 | 0.00 | 0.00 | 35 | 1018.9 |
| 20260504100204 | 74 | 186 | 12.0 | 20.0 | 0.00 | 0.00 | 0.00 | 37 | 1019.5 |
| 20260504081704 | 69 | 193 | 11.0 | 20.0 | 0.00 | 0.00 | 0.00 | 43 | 1019.9 |
| 20260504080704 | 69 | 195 | 12.0 | 21.0 | 0.00 | 0.00 | 0.00 | 43 | 1019.9 |
| 20260504080205 | 69 | 182 | 10.0 | 21.0 | 0.00 | 0.00 | 0.00 | 43 | 1019.8 |
| 20260504070204 | 66 | 194 | 13.0 | 23.0 | 0.00 | 0.00 | 0.00 | 44 | 1020.0 |
| 20260504050704 | 57 | 116 | 1.0 | 3.0 | 0.00 | 0.00 | 0.00 | 54 | 1020.0 |
| 20260504050204 | 57 | 129 | 2.0 | 6.0 | 0.00 | 0.00 | 0.00 | 55 | 1020.2 |
| 20260504045204 | 57 | 92 | 4.0 | 8.0 | 0.00 | 0.00 | 0.00 | 54 | 1019.8 |
| 20260504044204 | 57 | 113 | 5.0 | 9.0 | 0.00 | 0.00 | 0.00 | 54 | 1019.8 |
| 20260504043704 | 57 | 126 | 3.0 | 12.0 | 0.00 | 0.00 | 0.00 | 54 | 1019.9 |
| 20260504043205 | 57 | 125 | 5.0 | 12.0 | 0.00 | 0.00 | 0.00 | 54 | 1020.0 |
| 20260504041704 | 56 | 135 | 4.0 | 6.0 | 0.00 | 0.00 | 0.00 | 55 | 1020.0 |
| 20260504041204 | 56 | 140 | 3.0 | 7.0 | 0.00 | 0.00 | 0.00 | 54 | 1019.9 |
| 20260504040704 | 57 | 122 | 3.0 | 8.0 | 0.00 | 0.00 | 0.00 | 53 | 1019.8 |
| 20260504040204 | 57 | 117 | 5.0 | 9.0 | 0.00 | 0.00 | 0.00 | 53 | 1019.7 |
| 20260504035703 | 57 | 112 | 6.0 | 10.0 | 0.00 | 0.00 | 0.00 | 53 | 1019.9 |
| 20260504034704 | 57 | 110 | 7.0 | 14.0 | 0.00 | 0.00 | 0.00 | 53 | 1019.9 |
| 20260504034204 | 57 | 122 | 7.0 | 14.0 | 0.00 | 0.00 | 0.00 | 53 | 1019.9 |
| 20260504033704 | 57 | 117 | 6.0 | 12.0 | 0.00 | 0.00 | 0.00 | 53 | 1020.0 |
| 20260504033204 | 57 | 138 | 6.0 | 10.0 | 0.00 | 0.00 | 0.00 | 53 | 1019.9 |
| 20260504032704 | 58 | 149 | 4.0 | 9.0 | 0.00 | 0.00 | 0.00 | 53 | 1020.1 |
| 20260504031704 | 58 | 148 | 4.0 | 10.0 | 0.00 | 0.00 | 0.00 | 52 | 1020.0 |
| 20260504031204 | 58 | 157 | 5.0 | 10.0 | 0.00 | 0.00 | 0.00 | 52 | 1020.1 |
| 20260504030704 | 58 | 138 | 5.0 | 10.0 | 0.00 | 0.00 | 0.00 | 52 | 1020.2 |
| 20260504030204 | 58 | 150 | 6.0 | 13.0 | 0.00 | 0.00 | 0.00 | 52 | 1020.1 |
| 20260504025204 | 58 | 152 | 5.0 | 13.0 | 0.00 | 0.00 | 0.00 | 53 | 1020.1 |
| 20260504024704 | 57 | 155 | 5.0 | 9.0 | 0.00 | 0.00 | 0.00 | 53 | 1020.2 |
| 20260504024204 | 57 | 147 | 6.0 | 12.0 | 0.00 | 0.00 | 0.00 | 53 | 1020.3 |
| 20260504023704 | 57 | 148 | 6.0 | 9.0 | 0.00 | 0.00 | 0.00 | 53 | 1020.1 |
| 20260504023204 | 57 | 163 | 5.0 | 10.0 | 0.00 | 0.00 | 0.00 | 53 | 1020.2 |
| 20260504022703 | 57 | 153 | 5.0 | 8.0 | 0.00 | 0.00 | 0.00 | 52 | 1020.3 |
| 20260504022205 | 57 | 150 | 4.0 | 10.0 | 0.00 | 0.00 | 0.00 | 52 | 1020.1 |
| 20260504021203 | 57 | 146 | 5.0 | 8.0 | 0.00 | 0.00 | 0.00 | 52 | 1020.3 |
| 20260504020203 | 58 | 131 | 3.0 | 8.0 | 0.00 | 0.00 | 0.00 | 51 | 1020.3 |
| 20260504015704 | 58 | 134 | 4.0 | 9.0 | 0.00 | 0.00 | 0.00 | 51 | 1020.4 |
| 20260504015204 | 58 | 126 | 5.0 | 9.0 | 0.00 | 0.00 | 0.00 | 51 | 1020.1 |
| 20260504014704 | 58 | 156 | 3.0 | 7.0 | 0.00 | 0.00 | 0.00 | 51 | 1020.2 |
| 20260504014204 | 58 | 146 | 3.0 | 7.0 | 0.00 | 0.00 | 0.00 | 51 | 1020.1 |
| 20260504013704 | 58 | 140 | 5.0 | 8.0 | 0.00 | 0.00 | 0.00 | 51 | 1020.2 |
| 20260504013204 | 58 | 164 | 4.0 | 9.0 | 0.00 | 0.00 | 0.00 | 51 | 1020.4 |
| 20260504012704 | 58 | 150 | 3.0 | 6.0 | 0.00 | 0.00 | 0.00 | 51 | 1019.8 |
| 20260504012205 | 58 | 128 | 5.0 | 8.0 | 0.00 | 0.00 | 0.00 | 51 | 1020.0 |
| 20260504010704 | 57 | 139 | 5.0 | 8.0 | 0.00 | 0.00 | 0.00 | 51 | 1019.7 |
| 20260504004704 | 57 | 118 | 3.0 | 6.0 | 0.00 | 0.00 | 0.00 | 49 | 1019.9 |
| 20260504004204 | 57 | 90 | 3.0 | 5.0 | 0.00 | 0.00 | 0.00 | 49 | 1019.8 |
| 20260504003704 | 57 | 104 | 2.0 | 6.0 | 0.00 | 0.00 | 0.00 | 48 | 1019.8 |
| 20260504003204 | 57 | 102 | 2.0 | 5.0 | 0.00 | 0.00 | 0.00 | 48 | 1019.9 |
| 20260504001204 | 58 | 112 | 4.0 | 7.0 | 0.00 | 0.00 | 0.00 | 47 | 1019.8 |
| 20260504000204 | 58 | 144 | 3.0 | 7.0 | 0.00 | 0.00 | 0.00 | 46 | 1019.9 |
| 20260503235703 | 58 | 144 | 5.0 | 7.0 | 0.00 | 0.00 | 0.00 | 45 | 1020.0 |
| 20260503234703 | 59 | 124 | 5.0 | 10.0 | 0.00 | 0.00 | 0.00 | 45 | 1020.0 |
| 20260503234204 | 59 | 151 | 3.0 | 7.0 | 0.00 | 0.00 | 0.00 | 45 | 1020.0 |
| 20260503233704 | 59 | 137 | 3.0 | 9.0 | 0.00 | 0.00 | 0.00 | 44 | 1020.0 |
| 20260503233204 | 59 | 151 | 5.0 | 8.0 | 0.00 | 0.00 | 0.00 | 45 | 1020.0 |
| 20260503232704 | 59 | 151 | 5.0 | 10.0 | 0.00 | 0.00 | 0.00 | 44 | 1019.9 |
| 20260503232204 | 59 | 151 | 6.0 | 10.0 | 0.00 | 0.00 | 0.00 | 44 | 1020.0 |
| 20260503231704 | 59 | 140 | 5.0 | 9.0 | 0.00 | 0.00 | 0.00 | 44 | 1020.0 |
| 20260503231203 | 59 | 146 | 4.0 | 10.0 | 0.00 | 0.00 | 0.00 | 45 | 1020.3 |
| 20260503230203 | 58 | 144 | 4.0 | 8.0 | 0.00 | 0.00 | 0.00 | 44 | 1020.4 |
| 20260503225704 | 58 | 146 | 5.0 | 8.0 | 0.00 | 0.00 | 0.00 | 44 | 1020.4 |
| 20260503225203 | 58 | 149 | 5.0 | 8.0 | 0.00 | 0.00 | 0.00 | 44 | 1020.4 |
| 20260503224704 | 58 | 158 | 3.0 | 7.0 | 0.00 | 0.00 | 0.00 | 44 | 1020.4 |
| 20260503224204 | 58 | 160 | 3.0 | 7.0 | 0.00 | 0.00 | 0.00 | 44 | 1020.3 |
| 20260503223204 | 59 | 181 | 2.0 | 8.0 | 0.00 | 0.00 | 0.00 | 44 | 1020.6 |
| 20260503222704 | 59 | 153 | 5.0 | 7.0 | 0.00 | 0.00 | 0.00 | 44 | 1020.4 |
| 20260503222204 | 59 | 153 | 3.0 | 7.0 | 0.00 | 0.00 | 0.00 | 44 | 1020.4 |
| 20260503221704 | 59 | 165 | 2.0 | 7.0 | 0.00 | 0.00 | 0.00 | 44 | 1020.3 |
| 20260503220704 | 59 | 166 | 3.0 | 6.0 | 0.00 | 0.00 | 0.00 | 43 | 1020.3 |
| 20260503220204 | 59 | 162 | 5.0 | 6.0 | 0.00 | 0.00 | 0.00 | 43 | 1020.4 |
| 20260503215704 | 59 | 150 | 3.0 | 6.0 | 0.00 | 0.00 | 0.00 | 43 | 1020.2 |
| 20260503215204 | 59 | 172 | 3.0 | 6.0 | 0.00 | 0.00 | 0.00 | 42 | 1020.4 |
| 20260503214704 | 60 | 130 | 3.0 | 6.0 | 0.00 | 0.00 | 0.00 | 42 | 1020.5 |
| 20260503214204 | 60 | 156 | 3.0 | 6.0 | 0.00 | 0.00 | 0.00 | 42 | 1020.4 |
| 20260503213704 | 60 | 144 | 3.0 | 6.0 | 0.00 | 0.00 | 0.00 | 42 | 1020.5 |
| 20260503212704 | 60 | 154 | 3.0 | 6.0 | 0.00 | 0.00 | 0.00 | 41 | 1020.4 |
| 20260503211704 | 61 | 162 | 3.0 | 7.0 | 0.00 | 0.00 | 0.00 | 40 | 1020.3 |
| 20260503211204 | 61 | 145 | 3.0 | 7.0 | 0.00 | 0.00 | 0.00 | 40 | 1020.0 |
| 20260503210704 | 61 | 134 | 5.0 | 8.0 | 0.00 | 0.00 | 0.00 | 40 | 1020.4 |
| 20260503210204 | 62 | 139 | 4.0 | 7.0 | 0.00 | 0.00 | 0.00 | 39 | 1020.2 |
| 20260503205704 | 62 | 151 | 3.0 | 8.0 | 0.00 | 0.00 | 0.00 | 39 | 1020.4 |
| 20260503205204 | 62 | 140 | 3.0 | 6.0 | 0.00 | 0.00 | 0.00 | 39 | 1020.4 |
| 20260503204204 | 62 | 153 | 3.0 | 7.0 | 0.00 | 0.00 | 0.00 | 39 | 1020.5 |
| 20260503203704 | 62 | 141 | 3.0 | 7.0 | 0.00 | 0.00 | 0.00 | 39 | 1020.6 |
| 20260503203204 | 63 | 135 | 5.0 | 8.0 | 0.00 | 0.00 | 0.00 | 38 | 1020.5 |
| 20260503202704 | 63 | 143 | 4.0 | 8.0 | 0.00 | 0.00 | 0.00 | 38 | 1020.4 |
| 20260503201704 | 63 | 140 | 6.0 | 10.0 | 0.00 | 0.00 | 0.00 | 38 | 1020.3 |
| 20260503201204 | 64 | 133 | 6.0 | 10.0 | 0.00 | 0.00 | 0.00 | 38 | 1020.5 |
| 20260503200703 | 64 | 147 | 5.0 | 9.0 | 0.00 | 0.00 | 0.00 | 37 | 1020.5 |
| 20260503200203 | 64 | 136 | 5.0 | 9.0 | 0.00 | 0.00 | 0.00 | 37 | 1020.4 |
| 20260503195704 | 64 | 135 | 5.0 | 10.0 | 0.00 | 0.00 | 0.00 | 37 | 1020.4 |
| 20260503195204 | 64 | 143 | 5.0 | 10.0 | 0.00 | 0.00 | 0.00 | 37 | 1020.6 |
| 20260503194204 | 65 | 131 | 5.0 | 12.0 | 0.00 | 0.00 | 0.00 | 37 | 1020.6 |
| 20260503193704 | 65 | 147 | 6.0 | 13.0 | 0.00 | 0.00 | 0.00 | 38 | 1020.5 |
| 20260503193205 | 65 | 120 | 7.0 | 15.0 | 0.00 | 0.00 | 0.00 | 38 | 1020.4 |
| 20260503192704 | 65 | 135 | 9.0 | 13.0 | 0.00 | 0.00 | 0.00 | 38 | 1020.6 |
| 20260503191704 | 65 | 127 | 6.0 | 10.0 | 0.00 | 0.00 | 0.00 | 38 | 1020.3 |
| 20260503191203 | 66 | 126 | 5.0 | 9.0 | 0.00 | 0.00 | 0.00 | 38 | 1020.5 |
| 20260503190705 | 66 | 134 | 7.0 | 13.0 | 0.00 | 0.00 | 0.00 | 38 | 1020.4 |
| 20260503185705 | 66 | 116 | 7.0 | 12.0 | 0.00 | 0.00 | 0.00 | 38 | 1020.4 |
| 20260503185205 | 67 | 123 | 7.0 | 13.0 | 0.00 | 0.00 | 0.00 | 38 | 1020.3 |
| 20260503184705 | 67 | 141 | 5.0 | 10.0 | 0.00 | 0.00 | 0.00 | 38 | 1020.3 |
| 20260503184205 | 67 | 139 | 6.0 | 9.0 | 0.00 | 0.00 | 0.00 | 38 | 1020.2 |
| 20260503183705 | 67 | 138 | 6.0 | 10.0 | 0.00 | 0.00 | 0.00 | 38 | 1020.3 |
| 20260503183205 | 67 | 148 | 4.0 | 8.0 | 0.00 | 0.00 | 0.00 | 38 | 1020.1 |
| 20260503182706 | 68 | 121 | 5.0 | 12.0 | 0.00 | 0.00 | 0.00 | 38 | 1020.1 |
| 20260503182206 | 68 | 128 | 6.0 | 12.0 | 0.00 | 0.00 | 0.00 | 38 | 1020.2 |
| 20260503181206 | 69 | 128 | 6.0 | 12.0 | 0.00 | 0.00 | 0.00 | 37 | 1020.0 |
| 20260503180705 | 69 | 128 | 7.0 | 12.0 | 0.00 | 0.00 | 0.00 | 37 | 1020.0 |
| 20260503175705 | 70 | 156 | 6.0 | 10.0 | 0.00 | 0.00 | 0.00 | 37 | 1019.7 |
| 20260503175205 | 70 | 119 | 5.0 | 14.0 | 0.00 | 0.00 | 0.00 | 37 | 1019.6 |
| 20260503174705 | 71 | 122 | 5.0 | 14.0 | 0.00 | 0.00 | 0.00 | 37 | 1019.5 |
| 20260503174205 | 71 | 120 | 5.0 | 12.0 | 0.00 | 0.00 | 0.00 | 36 | 1019.5 |
| 20260503173205 | 71 | 130 | 7.0 | 12.0 | 0.00 | 0.00 | 0.00 | 36 | 1019.6 |
| 20260503172205 | 72 | 133 | 7.0 | 14.0 | 0.00 | 0.00 | 0.00 | 35 | 1019.5 |
| 20260503171205 | 73 | 130 | 5.0 | 13.0 | 0.00 | 0.00 | 0.00 | 35 | 1019.6 |
| 20260503170705 | 73 | 144 | 5.0 | 15.0 | 0.00 | 0.00 | 0.00 | 35 | 1019.6 |
| 20260503170206 | 73 | 138 | 6.0 | 14.0 | 0.00 | 0.00 | 0.00 | 34 | 1019.5 |
| 20260503150705 | 77 | 144 | 9.0 | 22.0 | 0.00 | 0.00 | 0.00 | 31 | 1019.9 |
| 20260503150205 | 77 | 145 | 8.0 | 16.0 | 0.00 | 0.00 | 0.00 | 31 | 1020.1 |
| 20260503140205 | 77 | 177 | 9.0 | 16.0 | 0.00 | 0.00 | 0.00 | 31 | 1020.5 |
| 20260503130705 | 77 | 193 | 9.0 | 20.0 | 0.00 | 0.00 | 0.00 | 31 | 1021.5 |
| 20260503130205 | 77 | 128 | 10.0 | 18.0 | 0.00 | 0.00 | 0.00 | 32 | 1021.3 |